Time,TemperatureF,DewpointF,PressureIn,WindDirection,WindDirectionDegrees,WindSpeedMPH,WindSpeedGustMPH,Humidity,HourlyPrecipIn,Conditions,Clouds,dailyrainin,SoftwareType,DateUTC
2013-05-13 00:22:00,68.0,61.0,29.97,North,360,16.0,20.0,79,-99.99,,,-99.99,,2013-05-13 04:22:00,
2013-05-13 00:32:00,68.0,61.0,29.97,North,360,16.0,20.0,79,-99.99,,,-99.99,,2013-05-13 04:32:00,
2013-05-13 01:00:00,67.0,51.0,29.99,North,360,14.0,17.0,56,-99.99,,,-99.99,,2013-05-13 05:00:00,
2013-05-13 01:21:00,67.0,51.0,29.99,North,360,14.0,17.0,56,-99.99,,,-99.99,,2013-05-13 05:21:00,
2013-05-13 01:32:00,67.0,51.0,29.99,North,360,14.0,17.0,56,-99.99,,,-99.99,,2013-05-13 05:32:00,
2013-05-13 01:42:00,67.0,51.0,29.99,North,360,14.0,17.0,56,-99.99,,,-99.99,,2013-05-13 05:42:00,
2013-05-13 01:51:00,67.0,51.0,29.99,North,360,14.0,17.0,56,-99.99,,,-99.99,,2013-05-13 05:51:00,
2013-05-13 02:00:00,66.0,49.0,29.98,North,10,17.0,24.0,53,-99.99,,,-99.99,,2013-05-13 06:00:00,
2013-05-13 02:21:00,66.0,49.0,29.98,North,10,17.0,24.0,53,-99.99,,,-99.99,,2013-05-13 06:21:00,
2013-05-13 02:31:00,66.0,49.0,29.98,North,10,17.0,24.0,53,-99.99,,,-99.99,,2013-05-13 06:31:00,
2013-05-13 02:41:00,66.0,49.0,29.98,North,10,17.0,24.0,53,-99.99,,,-99.99,,2013-05-13 06:41:00,
2013-05-13 02:52:00,66.0,49.0,29.98,North,10,17.0,24.0,53,-99.99,,,-99.99,,2013-05-13 06:52:00,
2013-05-13 03:00:00,65.0,49.0,29.97,North,10,16.0,18.0,55,-99.99,,,-99.99,,2013-05-13 07:00:00,
2013-05-13 03:21:00,65.0,49.0,29.97,North,10,16.0,18.0,55,-99.99,,,-99.99,,2013-05-13 07:21:00,
2013-05-13 03:31:00,65.0,49.0,29.97,North,10,16.0,18.0,55,-99.99,,,-99.99,,2013-05-13 07:31:00,
2013-05-13 03:41:00,65.0,49.0,29.97,North,10,16.0,18.0,55,-99.99,,,-99.99,,2013-05-13 07:41:00,
2013-05-13 03:51:00,65.0,49.0,29.97,North,10,16.0,18.0,55,-99.99,,,-99.99,,2013-05-13 07:51:00,
2013-05-13 04:00:00,63.0,50.0,29.98,North,350,17.0,20.0,60,-99.99,,,-99.99,,2013-05-13 08:00:00,
2013-05-13 04:21:00,63.0,50.0,29.98,North,350,17.0,20.0,60,-99.99,,,-99.99,,2013-05-13 08:21:00,
2013-05-13 04:31:00,63.0,50.0,29.98,North,350,17.0,20.0,60,-99.99,,,-99.99,,2013-05-13 08:31:00,
2013-05-13 04:41:00,63.0,50.0,29.98,North,350,17.0,20.0,60,-99.99,,,-99.99,,2013-05-13 08:41:00,
2013-05-13 04:51:00,63.0,50.0,29.98,North,350,17.0,20.0,60,-99.99,,,-99.99,,2013-05-13 08:51:00,
2013-05-13 05:00:00,63.0,49.0,29.98,North,360,14.0,17.0,61,-99.99,,,-99.99,,2013-05-13 09:00:00,
2013-05-13 05:21:00,63.0,49.0,29.98,North,360,14.0,17.0,61,-99.99,,,-99.99,,2013-05-13 09:21:00,
2013-05-13 05:32:00,63.0,49.0,29.98,North,360,14.0,17.0,61,-99.99,,,-99.99,,2013-05-13 09:32:00,
2013-05-13 05:42:00,63.0,49.0,29.98,North,360,14.0,17.0,61,-99.99,,,-99.99,,2013-05-13 09:42:00,
2013-05-13 05:52:00,63.0,49.0,29.98,North,360,14.0,17.0,61,-99.99,,,-99.99,,2013-05-13 09:52:00,
2013-05-13 06:00:00,63.0,56.0,30.00,NNE,30,11.0,14.0,77,-99.99,,,-99.99,,2013-05-13 10:00:00,
2013-05-13 06:22:00,63.0,56.0,30.00,NNE,30,11.0,14.0,77,-99.99,,,-99.99,,2013-05-13 10:22:00,
2013-05-13 06:42:00,63.0,56.0,30.00,NNE,30,11.0,14.0,77,-99.99,,,-99.99,,2013-05-13 10:42:00,
2013-05-13 06:52:00,63.0,56.0,30.00,NNE,30,11.0,14.0,77,-99.99,,,-99.99,,2013-05-13 10:52:00,
2013-05-13 07:00:00,63.0,53.0,30.01,NE,40,18.0,21.0,68,-99.99,,,-99.99,,2013-05-13 11:00:00,
2013-05-13 07:21:00,63.0,53.0,30.01,NE,40,18.0,21.0,68,-99.99,,,-99.99,,2013-05-13 11:21:00,
2013-05-13 07:31:00,63.0,53.0,30.01,NE,40,18.0,21.0,68,-99.99,,,-99.99,,2013-05-13 11:31:00,
2013-05-13 07:41:00,63.0,53.0,30.01,NE,40,18.0,21.0,68,-99.99,,,-99.99,,2013-05-13 11:41:00,
2013-05-13 07:51:00,63.0,53.0,30.01,NE,40,18.0,21.0,68,-99.99,,,-99.99,,2013-05-13 11:51:00,
2013-05-13 08:00:00,62.0,54.0,30.02,NE,40,21.0,26.0,73,-99.99,,,-99.99,,2013-05-13 12:00:00,
2013-05-13 08:21:00,62.0,54.0,30.02,NE,40,21.0,26.0,73,-99.99,,,-99.99,,2013-05-13 12:21:00,
2013-05-13 08:32:00,62.0,54.0,30.02,NE,40,21.0,26.0,73,-99.99,,,-99.99,,2013-05-13 12:32:00,
2013-05-13 08:41:00,62.0,54.0,30.02,NE,40,21.0,26.0,73,-99.99,,,-99.99,,2013-05-13 12:41:00,
2013-05-13 08:51:00,62.0,54.0,30.02,NE,40,21.0,26.0,73,-99.99,,,-99.99,,2013-05-13 12:51:00,
2013-05-13 09:00:00,63.0,51.0,30.02,NE,40,24.0,28.0,66,-99.99,,,-99.99,,2013-05-13 13:00:00,
2013-05-13 09:21:00,63.0,51.0,30.02,NE,40,24.0,28.0,66,-99.99,,,-99.99,,2013-05-13 13:21:00,
2013-05-13 09:31:00,63.0,51.0,30.02,NE,40,24.0,28.0,66,-99.99,,,-99.99,,2013-05-13 13:31:00,
2013-05-13 09:41:00,63.0,51.0,30.02,NE,40,24.0,28.0,66,-99.99,,,-99.99,,2013-05-13 13:41:00,
2013-05-13 09:51:00,63.0,51.0,30.02,NE,40,24.0,28.0,66,-99.99,,,-99.99,,2013-05-13 13:51:00,
2013-05-13 10:00:00,62.0,51.0,30.02,NNE,30,24.0,28.0,67,-99.99,,,-99.99,,2013-05-13 14:00:00,
2013-05-13 10:21:00,62.0,51.0,30.02,NNE,30,24.0,28.0,67,-99.99,,,-99.99,,2013-05-13 14:21:00,
2013-05-13 10:31:00,62.0,51.0,30.02,NNE,30,24.0,28.0,67,-99.99,,,-99.99,,2013-05-13 14:31:00,
2013-05-13 10:41:00,62.0,51.0,30.02,NNE,30,24.0,28.0,67,-99.99,,,-99.99,,2013-05-13 14:41:00,
2013-05-13 10:51:00,62.0,51.0,30.02,NNE,30,24.0,28.0,67,-99.99,,,-99.99,,2013-05-13 14:51:00,
2013-05-13 11:00:00,63.0,50.0,30.05,NNE,30,22.0,28.0,62,-99.99,,,-99.99,,2013-05-13 15:00:00,
2013-05-13 11:21:00,63.0,50.0,30.05,NNE,30,22.0,28.0,62,-99.99,,,-99.99,,2013-05-13 15:21:00,
2013-05-13 11:31:00,63.0,50.0,30.05,NNE,30,22.0,28.0,62,-99.99,,,-99.99,,2013-05-13 15:31:00,
2013-05-13 11:42:00,63.0,50.0,30.05,NNE,30,22.0,28.0,62,-99.99,,,-99.99,,2013-05-13 15:42:00,
2013-05-13 11:52:00,63.0,50.0,30.05,NNE,30,22.0,28.0,62,-99.99,,,-99.99,,2013-05-13 15:52:00,
2013-05-13 12:00:00,63.0,48.0,30.05,NNE,30,23.0,26.0,57,-99.99,,,-99.99,,2013-05-13 16:00:00,
2013-05-13 12:21:00,63.0,48.0,30.05,NNE,30,23.0,26.0,57,-99.99,,,-99.99,,2013-05-13 16:21:00,
2013-05-13 12:33:00,63.0,48.0,30.05,NNE,30,23.0,26.0,57,-99.99,,,-99.99,,2013-05-13 16:33:00,
2013-05-13 12:42:00,63.0,48.0,30.05,NNE,30,23.0,26.0,57,-99.99,,,-99.99,,2013-05-13 16:42:00,
2013-05-13 12:52:00,63.0,48.0,30.05,NNE,30,23.0,26.0,57,-99.99,,,-99.99,,2013-05-13 16:52:00,
2013-05-13 13:00:00,64.0,46.0,30.05,North,10,15.0,18.0,50,-99.99,,,-99.99,,2013-05-13 17:00:00,
2013-05-13 13:21:00,64.0,46.0,30.05,North,10,15.0,18.0,50,-99.99,,,-99.99,,2013-05-13 17:21:00,
2013-05-13 13:32:00,64.0,46.0,30.05,North,10,15.0,18.0,50,-99.99,,,-99.99,,2013-05-13 17:32:00,
2013-05-13 13:41:00,64.0,46.0,30.05,North,10,15.0,18.0,50,-99.99,,,-99.99,,2013-05-13 17:41:00,
2013-05-13 13:54:00,64.0,46.0,30.05,North,10,15.0,18.0,50,-99.99,,,-99.99,,2013-05-13 17:54:00,
2013-05-13 14:00:00,64.0,47.0,30.03,North,10,18.0,22.0,53,-99.99,,,-99.99,,2013-05-13 18:00:00,
2013-05-13 14:22:00,64.0,47.0,30.03,North,10,18.0,22.0,53,-99.99,,,-99.99,,2013-05-13 18:22:00,
2013-05-13 14:32:00,64.0,47.0,30.03,North,10,18.0,22.0,53,-99.99,,,-99.99,,2013-05-13 18:32:00,
2013-05-13 14:42:00,64.0,47.0,30.03,North,10,18.0,22.0,53,-99.99,,,-99.99,,2013-05-13 18:42:00,
2013-05-13 14:51:00,64.0,47.0,30.03,North,10,18.0,22.0,53,-99.99,,,-99.99,,2013-05-13 18:51:00,
2013-05-13 15:00:00,65.0,47.0,30.02,North,360,15.0,18.0,52,-99.99,,,-99.99,,2013-05-13 19:00:00,
2013-05-13 15:21:00,65.0,47.0,30.02,North,360,15.0,18.0,52,-99.99,,,-99.99,,2013-05-13 19:21:00,
2013-05-13 15:32:00,65.0,47.0,30.02,North,360,15.0,18.0,52,-99.99,,,-99.99,,2013-05-13 19:32:00,
2013-05-13 15:43:00,65.0,47.0,30.02,North,360,15.0,18.0,52,-99.99,,,-99.99,,2013-05-13 19:43:00,
2013-05-13 15:52:00,65.0,47.0,30.02,North,360,15.0,18.0,52,-99.99,,,-99.99,,2013-05-13 19:52:00,
2013-05-13 16:00:00,66.0,47.0,30.01,NNW,340,11.0,17.0,51,-99.99,,,-99.99,,2013-05-13 20:00:00,
2013-05-13 16:23:00,66.0,47.0,30.01,NNW,340,11.0,17.0,51,-99.99,,,-99.99,,2013-05-13 20:23:00,
2013-05-13 16:33:00,66.0,47.0,30.01,NNW,340,11.0,17.0,51,-99.99,,,-99.99,,2013-05-13 20:33:00,
2013-05-13 16:44:00,66.0,47.0,30.01,NNW,340,11.0,17.0,51,-99.99,,,-99.99,,2013-05-13 20:44:00,
2013-05-13 16:53:00,66.0,47.0,30.01,NNW,340,11.0,17.0,51,-99.99,,,-99.99,,2013-05-13 20:53:00,
2013-05-13 17:00:00,66.0,46.0,29.99,NNW,340,10.0,13.0,48,-99.99,,,-99.99,,2013-05-13 21:00:00,
2013-05-13 17:22:00,66.0,46.0,29.99,NNW,340,10.0,13.0,48,-99.99,,,-99.99,,2013-05-13 21:22:00,
2013-05-13 17:33:00,66.0,46.0,29.99,NNW,340,10.0,13.0,48,-99.99,,,-99.99,,2013-05-13 21:33:00,
2013-05-13 17:43:00,66.0,46.0,29.99,NNW,340,10.0,13.0,48,-99.99,,,-99.99,,2013-05-13 21:43:00,
2013-05-13 17:52:00,66.0,46.0,29.99,NNW,340,10.0,13.0,48,-99.99,,,-99.99,,2013-05-13 21:52:00,
2013-05-13 18:00:00,67.0,43.0,29.99,NW,320,15.0,18.0,41,-99.99,,,-99.99,,2013-05-13 22:00:00,
2013-05-13 18:22:00,67.0,43.0,29.99,NW,320,15.0,18.0,41,-99.99,,,-99.99,,2013-05-13 22:22:00,
2013-05-13 18:32:00,67.0,43.0,29.99,NW,320,15.0,18.0,41,-99.99,,,-99.99,,2013-05-13 22:32:00,
2013-05-13 18:42:00,67.0,43.0,29.99,NW,320,15.0,18.0,41,-99.99,,,-99.99,,2013-05-13 22:42:00,
2013-05-13 18:52:00,67.0,43.0,29.99,NW,320,15.0,18.0,41,-99.99,,,-99.99,,2013-05-13 22:52:00,
2013-05-13 19:00:00,66.0,42.0,30.00,NNW,330,20.0,23.0,40,-99.99,,,-99.99,,2013-05-13 23:00:00,
2013-05-13 19:23:00,66.0,42.0,30.00,NNW,330,20.0,23.0,40,-99.99,,,-99.99,,2013-05-13 23:23:00,
2013-05-13 19:33:00,66.0,42.0,30.00,NNW,330,20.0,23.0,40,-99.99,,,-99.99,,2013-05-13 23:33:00,
2013-05-13 19:42:00,66.0,42.0,30.00,NNW,330,20.0,23.0,40,-99.99,,,-99.99,,2013-05-13 23:42:00,
2013-05-13 19:53:00,66.0,42.0,30.00,NNW,330,20.0,23.0,40,-99.99,,,-99.99,,2013-05-13 23:53:00,
2013-05-13 20:00:00,65.0,44.0,30.03,NNW,330,14.0,17.0,45,-99.99,,,-99.99,,2013-05-14 00:00:00,
2013-05-13 20:22:00,65.0,44.0,30.03,NNW,330,14.0,17.0,45,-99.99,,,-99.99,,2013-05-14 00:22:00,
2013-05-13 20:31:00,65.0,44.0,30.03,NNW,330,14.0,17.0,45,-99.99,,,-99.99,,2013-05-14 00:31:00,
2013-05-13 20:41:00,65.0,44.0,30.03,NNW,330,14.0,17.0,45,-99.99,,,-99.99,,2013-05-14 00:41:00,
2013-05-13 20:51:00,65.0,44.0,30.03,NNW,330,14.0,17.0,45,-99.99,,,-99.99,,2013-05-14 00:51:00,
2013-05-13 21:00:00,64.0,41.0,30.07,NNW,340,20.0,22.0,43,-99.99,,,-99.99,,2013-05-14 01:00:00,
2013-05-13 21:21:00,64.0,41.0,30.07,NNW,340,20.0,22.0,43,-99.99,,,-99.99,,2013-05-14 01:21:00,
2013-05-13 21:31:00,64.0,41.0,30.07,NNW,340,20.0,22.0,43,-99.99,,,-99.99,,2013-05-14 01:31:00,
2013-05-13 21:43:00,64.0,41.0,30.07,NNW,340,20.0,22.0,43,-99.99,,,-99.99,,2013-05-14 01:43:00,
2013-05-13 21:52:00,64.0,41.0,30.07,NNW,340,20.0,22.0,43,-99.99,,,-99.99,,2013-05-14 01:52:00,
2013-05-13 23:00:00,60.0,47.0,30.12,NE,40,11.0,13.0,63,-99.99,,,-99.99,,2013-05-14 03:00:00,
2013-05-13 23:21:00,60.0,47.0,30.12,NE,40,11.0,13.0,63,-99.99,,,-99.99,,2013-05-14 03:21:00,
2013-05-13 23:32:00,60.0,47.0,30.12,NE,40,11.0,13.0,63,-99.99,,,-99.99,,2013-05-14 03:32:00,
2013-05-13 23:42:00,60.0,47.0,30.12,NE,40,11.0,13.0,63,-99.99,,,-99.99,,2013-05-14 03:42:00,
2013-05-13 23:52:00,60.0,47.0,30.12,NE,40,11.0,13.0,63,-99.99,,,-99.99,,2013-05-14 03:52:00,